[[{"header":{"parameterUnit":"m.s-1","parameterCategory":2,"la1":30.2992,"la2":30.254,"lo1":-89.0895,"lo2":-89.0443,"dy":0.0025,"dx":0.0025,"nx":19,"ny":19,"refTime":"2026-04-30T21:00:00:Z","depth":"0","parameterNumber":2,"parameterNumberName":"U-component_of_CURRENTS"},"data":[0,0,0,-0.265,-0.265,-0.2659,-0.2658,-0.2668,-0.2668,0,0,0,0,0,0,0,0,0,0,0,-0.264,-0.264,-0.265,-0.265,-0.2659,-0.2658,-0.2668,-0.2668,0,0,0,0,0,0,0,0,0,0,0,-0.264,-0.264,-0.264,-0.2651,-0.2659,-0.2658,-0.2668,-0.266,0,0,0,0,0,0,0,0,0,0,-0.2652,-0.2642,-0.264,-0.264,-0.2651,-0.2659,-0.2658,-0.266,-0.266,-0.2666,0,-0.2667,0,-0.2675,-0.2669,-0.2669,0,0,0,-0.2643,-0.2641,-0.2649,-0.264,-0.2651,-0.2659,-0.2653,-0.266,-0.2661,-0.2667,-0.2667,-0.2668,-0.2675,-0.2669,-0.2669,-0.2699,-0.2699,0,0,-0.2643,-0.2636,-0.2649,-0.265,-0.2653,-0.2653,-0.2653,-0.2661,-0.2659,-0.2667,-0.2668,-0.2675,-0.2669,-0.267,-0.2699,-0.2699,0,0,0,-0.2646,-0.2636,-0.2643,-0.2649,-0.2655,-0.2653,-0.2654,-0.2658,-0.2662,-0.2668,-0.2675,-0.2669,-0.267,-0.2699,-0.2699,-0.2711,0,0,0,-0.2646,-0.2639,-0.2643,-0.2638,-0.2655,-0.2657,-0.2651,-0.2661,-0.2662,-0.2675,-0.2669,-0.267,-0.2698,-0.2699,-0.271,-0.2719,0,0,0,-0.2639,-0.2638,-0.264,-0.2638,-0.2647,-0.2657,-0.266,-0.2661,-0.2667,-0.2669,-0.267,-0.2698,-0.2699,-0.2709,-0.2718,-0.2754,0,0,0,-0.2631,-0.2637,-0.264,-0.265,-0.2647,-0.2666,-0.266,-0.2668,-0.267,-0.267,-0.2698,-0.2699,-0.2709,-0.2717,-0.2753,-0.2886,-0.2902,0,0,-0.2636,-0.2637,-0.2645,-0.2649,-0.2666,-0.2664,-0.2684,-0.2681,-0.2679,-0.2694,-0.2695,-0.271,-0.2718,-0.2754,-0.2911,-0.2927,0,0,0,-0.2646,-0.2645,-0.2653,-0.2663,-0.268,-0.2693,-0.2693,-0.2698,-0.2705,-0.2685,-0.2716,-0.2721,-0.2743,-0.2821,-0.2833,-0.2938,-0.2701,-0.2701,-0.2701,-0.2631,-0.2646,-0.2654,-0.2671,-0.2688,-0.271,-0.2724,-0.273,-0.2722,-0.2728,-0.2734,-0.2775,-0.2858,-0.2869,-0.2974,-0.2736,-0.2737,-0.2737,-0.2737,-0.2621,-0.2616,-0.2645,-0.2655,-0.2685,-0.2701,-0.2746,-0.2749,-0.2779,-0.2756,-0.2777,-0.2834,-0.2883,-0.2991,-0.2737,-0.2737,-0.2737,-0.2737,-0.2737,-0.259,-0.2587,-0.2601,-0.2618,-0.2649,-0.2689,-0.2746,-0.277,-0.2791,-0.281,-0.2909,-0.291,-0.3003,-0.2823,-0.2823,-0.2823,-0.2823,-0.2824,-0.2824,-0.2538,-0.2555,-0.2544,-0.2577,-0.2587,-0.264,-0.274,-0.2801,-0.2908,-0.2942,-0.2944,-0.3047,-0.2802,-0.2796,-0.2827,-0.2826,-0.2826,-0.2826,-0.2825,-0.2454,-0.2478,-0.2464,-0.2468,-0.251,-0.2598,-0.2722,-0.2953,-0.3022,-0.3107,-0.3247,-0.3025,-0.304,-0.3031,-0.3032,-0.3122,-0.3122,-0.3122,-0.3122,-0.2387,-0.2403,-0.2371,-0.237,-0.2415,-0.2562,-0.2829,-0.3107,-0.3342,-0.3454,-0.3425,-0.3447,-0.343,-0.3466,-0.3448,-0.3457,-0.3652,-0.3653,-0.3653,-0.2306,-0.2327,-0.2271,-0.2304,-0.2355,-0.2549,-0.2886,-0.3371,-0.3674,-0.3679,-0.3545,-0.3522,-0.3551,-0.3516,-0.3566,-0.3532,-0.3543,0,0]},{"header":{"parameterUnit":"m.s-1","parameterCategory":2,"la1":30.2992,"la2":30.254,"lo1":-89.0895,"lo2":-89.0443,"dy":0.0025,"dx":0.0025,"nx":19,"ny":19,"refTime":"2026-04-30T21:00:00:Z","depth":"0","parameterNumber":3,"parameterNumberName":"V-component_of_CURRENTS"},"data":[0,0,0,-0.1012,-0.1011,-0.0973,-0.0973,-0.0886,-0.0885,0,0,0,0,0,0,0,0,0,0,0,-0.1022,-0.1022,-0.1012,-0.1011,-0.0973,-0.0973,-0.0886,-0.0885,0,0,0,0,0,0,0,0,0,0,0,-0.1022,-0.1022,-0.1022,-0.1011,-0.0973,-0.0973,-0.0886,-0.0921,0,0,0,0,0,0,0,0,0,0,-0.0962,-0.0983,-0.1022,-0.1022,-0.1011,-0.0973,-0.0973,-0.0923,-0.0919,-0.0897,0,-0.0899,0,-0.0896,-0.088,-0.088,0,0,0,-0.0998,-0.0986,-0.0978,-0.1022,-0.1011,-0.0973,-0.0987,-0.0921,-0.0916,-0.0891,-0.0898,-0.0895,-0.0894,-0.0879,-0.0879,-0.0836,-0.0836,0,0,-0.1,-0.1009,-0.0982,-0.0976,-0.101,-0.0988,-0.0986,-0.0919,-0.0915,-0.0897,-0.0893,-0.0893,-0.0879,-0.0878,-0.0836,-0.0836,0,0,0,-0.1015,-0.1011,-0.1005,-0.0979,-0.0978,-0.0987,-0.0984,-0.0918,-0.0917,-0.0892,-0.0892,-0.0878,-0.0877,-0.0836,-0.0836,-0.0892,0,0,0,-0.1016,-0.102,-0.1006,-0.101,-0.098,-0.0954,-0.0986,-0.0922,-0.0914,-0.0892,-0.0878,-0.0877,-0.0836,-0.0836,-0.089,-0.0925,0,0,0,-0.1023,-0.1021,-0.102,-0.1011,-0.1001,-0.0955,-0.0949,-0.092,-0.0915,-0.088,-0.0876,-0.0836,-0.0836,-0.0889,-0.0921,-0.0929,0,0,0,-0.1027,-0.1043,-0.1021,-0.1035,-0.1002,-0.0991,-0.095,-0.0931,-0.0905,-0.0878,-0.0836,-0.0836,-0.0888,-0.0919,-0.0927,-0.0991,-0.1004,0,0,-0.1053,-0.1046,-0.1055,-0.1035,-0.1047,-0.0994,-0.0991,-0.094,-0.0901,-0.0852,-0.0851,-0.0891,-0.0921,-0.0928,-0.101,-0.1023,0,0,0,-0.1067,-0.1078,-0.1076,-0.1076,-0.1054,-0.1036,-0.0982,-0.0955,-0.0915,-0.089,-0.0882,-0.0899,-0.0902,-0.0936,-0.0946,-0.0889,-0.0838,-0.0838,-0.0838,-0.1116,-0.1109,-0.1131,-0.1121,-0.1105,-0.1059,-0.1037,-0.0988,-0.0941,-0.0934,-0.0938,-0.0975,-0.1012,-0.102,-0.0961,-0.0924,-0.0925,-0.0925,-0.0925,-0.1174,-0.12,-0.1179,-0.1199,-0.1169,-0.1154,-0.1088,-0.1053,-0.1013,-0.0978,-0.0977,-0.0986,-0.1035,-0.0967,-0.0928,-0.0928,-0.0927,-0.0927,-0.0927,-0.1224,-0.1239,-0.1243,-0.1268,-0.1268,-0.1221,-0.1226,-0.1152,-0.1076,-0.1074,-0.1084,-0.1084,-0.1028,-0.1065,-0.1065,-0.1066,-0.1066,-0.1066,-0.1066,-0.1281,-0.1288,-0.1332,-0.1342,-0.1364,-0.1365,-0.1304,-0.1274,-0.1206,-0.1155,-0.1155,-0.104,-0.1017,-0.1017,-0.1069,-0.1069,-0.1068,-0.1068,-0.1068,-0.1354,-0.1358,-0.1432,-0.1464,-0.1514,-0.1597,-0.1503,-0.1454,-0.1372,-0.1352,-0.1172,-0.1186,-0.1171,-0.1163,-0.1166,-0.1253,-0.1253,-0.1253,-0.1254,-0.1407,-0.1412,-0.1532,-0.1608,-0.1672,-0.1707,-0.1825,-0.1732,-0.146,-0.133,-0.1214,-0.1192,-0.1187,-0.1169,-0.1161,-0.1161,-0.1246,-0.1246,-0.1246,-0.1455,-0.1493,-0.1594,-0.1674,-0.1754,-0.1864,-0.2049,-0.2013,-0.1532,-0.1235,-0.1121,-0.1121,-0.1074,-0.1071,-0.1029,-0.1022,-0.1017,0,0]}],[{"header":{"parameterUnit":"m.s-1","parameterCategory":2,"la1":30.2992,"la2":30.254,"lo1":-89.0895,"lo2":-89.0443,"dy":0.0025,"dx":0.0025,"nx":19,"ny":19,"refTime":"2026-04-30T21:00:00:Z","depth":"2","parameterNumber":2,"parameterNumberName":"U-component_of_CURRENTS"},"data":[0,0,0,-0.2633,-0.2634,-0.2643,-0.2643,-0.2652,-0.2653,0,0,0,0,0,0,0,0,0,0,0,-0.2623,-0.2623,-0.2633,-0.2634,-0.2643,-0.2643,-0.2652,-0.2653,0,0,0,0,0,0,0,0,0,0,0,-0.2623,-0.2623,-0.2623,-0.2634,-0.2643,-0.2643,-0.2652,-0.2644,0,0,0,0,0,0,0,0,0,0,-0.2635,-0.2626,-0.2623,-0.2623,-0.2634,-0.2643,-0.2643,-0.2644,-0.2645,-0.265,0,-0.2651,0,-0.2659,-0.2654,-0.2654,0,0,0,-0.2627,-0.2625,-0.2633,-0.2623,-0.2634,-0.2643,-0.2637,-0.2644,-0.2645,-0.2651,-0.2652,-0.2652,-0.2659,-0.2654,-0.2654,-0.2684,-0.2684,0,0,-0.2626,-0.262,-0.2632,-0.2633,-0.2637,-0.2637,-0.2637,-0.2645,-0.2643,-0.2652,-0.2653,-0.2659,-0.2654,-0.2654,-0.2684,-0.2684,0,0,0,-0.263,-0.2619,-0.2627,-0.2633,-0.2638,-0.2637,-0.2638,-0.2642,-0.2646,-0.2653,-0.2659,-0.2654,-0.2654,-0.2683,-0.2684,-0.2696,0,0,0,-0.2629,-0.2622,-0.2626,-0.2622,-0.2638,-0.2641,-0.2635,-0.2645,-0.2647,-0.2659,-0.2654,-0.2655,-0.2683,-0.2683,-0.2695,-0.2704,0,0,0,-0.2623,-0.2621,-0.2624,-0.2622,-0.2631,-0.2641,-0.2645,-0.2646,-0.2651,-0.2654,-0.2655,-0.2683,-0.2683,-0.2694,-0.2703,-0.2739,0,0,0,-0.2614,-0.262,-0.2623,-0.2634,-0.2631,-0.265,-0.2645,-0.2652,-0.2655,-0.2654,-0.2683,-0.2684,-0.2694,-0.2702,-0.2738,-0.2773,-0.2781,0,0,-0.2619,-0.2621,-0.2629,-0.2632,-0.265,-0.2648,-0.2668,-0.2666,-0.2664,-0.2679,-0.2679,-0.2695,-0.2703,-0.2739,-0.2798,-0.2806,0,0,0,-0.263,-0.2629,-0.2637,-0.2646,-0.2663,-0.2677,-0.2677,-0.2682,-0.269,-0.2669,-0.2701,-0.2705,-0.2728,-0.2746,-0.2753,-0.2686,-0.2686,-0.2686,-0.2686,-0.2614,-0.2629,-0.2637,-0.2654,-0.2671,-0.2694,-0.2708,-0.2715,-0.2706,-0.2713,-0.2719,-0.276,-0.2779,-0.2784,-0.2722,-0.2722,-0.2722,-0.2722,-0.2722,-0.2605,-0.2599,-0.2629,-0.2639,-0.2669,-0.2686,-0.2731,-0.2734,-0.2764,-0.2741,-0.2762,-0.2763,-0.2792,-0.2723,-0.2723,-0.2722,-0.2722,-0.2722,-0.2722,-0.2574,-0.2571,-0.2585,-0.2602,-0.2633,-0.2674,-0.2731,-0.2755,-0.2776,-0.2795,-0.2829,-0.2829,-0.2776,-0.2809,-0.2809,-0.2809,-0.2809,-0.2809,-0.2809,-0.2522,-0.2539,-0.2529,-0.2562,-0.2572,-0.2624,-0.2725,-0.2786,-0.2851,-0.2853,-0.2854,-0.279,-0.2787,-0.2782,-0.2812,-0.2812,-0.2812,-0.2811,-0.2811,-0.2439,-0.2463,-0.2449,-0.2453,-0.2495,-0.2464,-0.2673,-0.2866,-0.2952,-0.3008,-0.2896,-0.2892,-0.2897,-0.2892,-0.289,-0.2947,-0.2947,-0.2947,-0.2947,-0.2372,-0.2388,-0.2356,-0.2355,-0.24,-0.2391,-0.2423,-0.2383,-0.254,-0.2478,-0.2495,-0.2432,-0.2442,-0.2415,-0.2421,-0.2406,-0.2336,-0.2334,-0.2331,-0.2291,-0.2312,-0.2257,-0.2289,-0.2339,-0.2259,-0.2084,-0.1833,-0.1978,-0.2282,-0.2125,-0.2957,-0.2919,-0.2912,-0.2915,-0.2907,-0.2901,0,0]},{"header":{"parameterUnit":"m.s-1","parameterCategory":2,"la1":30.2992,"la2":30.254,"lo1":-89.0895,"lo2":-89.0443,"dy":0.0025,"dx":0.0025,"nx":19,"ny":19,"refTime":"2026-04-30T21:00:00:Z","depth":"2","parameterNumber":3,"parameterNumberName":"V-component_of_CURRENTS"},"data":[0,0,0,-0.0975,-0.0975,-0.0938,-0.0938,-0.0851,-0.0851,0,0,0,0,0,0,0,0,0,0,0,-0.0986,-0.0986,-0.0975,-0.0975,-0.0938,-0.0938,-0.0851,-0.0851,0,0,0,0,0,0,0,0,0,0,0,-0.0986,-0.0986,-0.0986,-0.0975,-0.0938,-0.0938,-0.0852,-0.0886,0,0,0,0,0,0,0,0,0,0,-0.0925,-0.0946,-0.0986,-0.0986,-0.0975,-0.0938,-0.0938,-0.0888,-0.0884,-0.0861,0,-0.0863,0,-0.0861,-0.0845,-0.0845,0,0,0,-0.0962,-0.095,-0.0942,-0.0986,-0.0975,-0.0939,-0.0951,-0.0886,-0.0881,-0.0855,-0.0862,-0.0859,-0.0859,-0.0845,-0.0844,-0.0801,-0.0801,0,0,-0.0964,-0.0973,-0.0945,-0.0939,-0.0975,-0.0952,-0.095,-0.0883,-0.088,-0.0862,-0.0857,-0.0858,-0.0844,-0.0843,-0.0801,-0.0801,0,0,0,-0.0978,-0.0974,-0.0969,-0.0943,-0.0942,-0.0952,-0.0949,-0.0883,-0.0882,-0.0856,-0.0857,-0.0844,-0.0842,-0.0801,-0.0801,-0.0858,0,0,0,-0.0979,-0.0984,-0.097,-0.0974,-0.0944,-0.0918,-0.095,-0.0887,-0.0879,-0.0857,-0.0843,-0.0842,-0.0801,-0.0801,-0.0856,-0.089,0,0,0,-0.0986,-0.0984,-0.0984,-0.0975,-0.0965,-0.092,-0.0914,-0.0885,-0.088,-0.0845,-0.0841,-0.08,-0.0801,-0.0854,-0.0886,-0.0894,0,0,0,-0.099,-0.1006,-0.0984,-0.0999,-0.0966,-0.0955,-0.0915,-0.0896,-0.0871,-0.0843,-0.0801,-0.0801,-0.0853,-0.0884,-0.0892,-0.0882,-0.089,0,0,-0.1016,-0.1009,-0.1019,-0.0999,-0.101,-0.0959,-0.0956,-0.0905,-0.0866,-0.0817,-0.0816,-0.0856,-0.0886,-0.0893,-0.0902,-0.0909,0,0,0,-0.1031,-0.1042,-0.1039,-0.104,-0.1018,-0.1001,-0.0947,-0.092,-0.088,-0.0855,-0.0847,-0.0864,-0.0867,-0.0857,-0.0862,-0.0803,-0.0803,-0.0802,-0.0802,-0.1079,-0.1072,-0.1095,-0.1084,-0.1069,-0.1023,-0.1001,-0.0952,-0.0906,-0.09,-0.0903,-0.094,-0.093,-0.0934,-0.0889,-0.089,-0.089,-0.089,-0.089,-0.1138,-0.1164,-0.1143,-0.1163,-0.1133,-0.1118,-0.1052,-0.1018,-0.0978,-0.0943,-0.0942,-0.0909,-0.0943,-0.0894,-0.0894,-0.0893,-0.0893,-0.0892,-0.0892,-0.1188,-0.1204,-0.1208,-0.1233,-0.1233,-0.1186,-0.1191,-0.1117,-0.1041,-0.1039,-0.1,-0.0999,-0.0975,-0.1031,-0.1031,-0.1031,-0.1032,-0.1032,-0.1032,-0.1246,-0.1253,-0.1297,-0.1307,-0.1329,-0.1331,-0.127,-0.1239,-0.114,-0.1065,-0.1064,-0.0987,-0.0982,-0.0982,-0.1035,-0.1034,-0.1034,-0.1034,-0.1033,-0.1319,-0.1323,-0.1397,-0.143,-0.1479,-0.1458,-0.144,-0.1363,-0.1297,-0.1255,-0.1065,-0.1064,-0.1041,-0.1035,-0.1036,-0.1099,-0.1099,-0.1099,-0.1099,-0.1372,-0.1377,-0.1497,-0.1573,-0.1637,-0.1536,-0.1486,-0.1216,-0.1031,-0.0861,-0.087,-0.082,-0.0825,-0.0786,-0.0786,-0.0778,-0.0775,-0.0774,-0.0773,-0.1421,-0.1459,-0.156,-0.1639,-0.1719,-0.1587,-0.1405,-0.0992,-0.0699,-0.0749,-0.0702,-0.1099,-0.1051,-0.1048,-0.1007,-0.1,-0.0996,0,0]}],[{"header":{"parameterUnit":"m.s-1","parameterCategory":2,"la1":30.2992,"la2":30.254,"lo1":-89.0895,"lo2":-89.0443,"dy":0.0025,"dx":0.0025,"nx":19,"ny":19,"refTime":"2026-04-30T21:00:00:Z","depth":"4","parameterNumber":2,"parameterNumberName":"U-component_of_CURRENTS"},"data":[0,0,0,-0.1426,-0.1427,-0.1492,-0.1493,-0.1533,-0.1533,0,0,0,0,0,0,0,0,0,0,0,-0.1407,-0.1408,-0.1426,-0.1427,-0.1492,-0.1493,-0.1533,-0.1533,0,0,0,0,0,0,0,0,0,0,0,-0.1407,-0.1408,-0.1409,-0.1427,-0.1492,-0.1493,-0.1532,-0.1494,0,0,0,0,0,0,0,0,0,0,-0.1436,-0.1429,-0.1408,-0.1409,-0.1428,-0.1492,-0.1493,-0.1493,-0.1496,-0.1491,0,-0.1508,0,-0.1519,-0.1535,-0.1535,0,0,0,-0.1427,-0.1426,-0.144,-0.1409,-0.1428,-0.1492,-0.1463,-0.1495,-0.1499,-0.1495,-0.1508,-0.151,-0.1519,-0.1535,-0.1535,-0.1583,-0.1583,0,0,-0.1424,-0.142,-0.1437,-0.1443,-0.1453,-0.1461,-0.1465,-0.1498,-0.1507,-0.1509,-0.1511,-0.152,-0.1535,-0.1535,-0.1582,-0.1583,0,0,0,-0.1413,-0.1418,-0.1432,-0.1441,-0.1455,-0.1463,-0.1467,-0.1506,-0.151,-0.1512,-0.152,-0.1535,-0.1535,-0.1582,-0.1583,-0.1607,0,0,0,-0.1411,-0.1412,-0.1431,-0.143,-0.1455,-0.1488,-0.1474,-0.1508,-0.1512,-0.152,-0.1535,-0.1536,-0.1582,-0.1582,-0.1605,-0.1611,0,0,0,-0.1403,-0.1411,-0.142,-0.1429,-0.1457,-0.1487,-0.1494,-0.1509,-0.1517,-0.1535,-0.1536,-0.1581,-0.1582,-0.1604,-0.1609,-0.1625,0,0,0,-0.1394,-0.1405,-0.1421,-0.1441,-0.1456,-0.1496,-0.1494,-0.153,-0.1549,-0.1535,-0.1582,-0.1583,-0.1604,-0.1608,-0.1624,-0.1451,0,0,0,-0.1396,-0.1405,-0.1416,-0.1432,-0.1466,-0.1486,-0.1528,-0.1554,-0.1557,-0.1567,-0.1568,-0.1606,-0.1609,-0.1625,-0.15,0,0,0,0,-0.1409,-0.1417,-0.1432,-0.146,-0.1492,-0.1532,-0.1559,-0.1572,-0.1601,-0.1572,-0.1615,-0.1617,-0.1626,-0.1522,-0.1586,-0.1586,-0.1586,-0.1586,-0.1586,-0.139,-0.1415,-0.1438,-0.1475,-0.1511,-0.1567,-0.1597,-0.1619,-0.162,-0.1641,-0.1644,-0.1681,-0.1574,-0.1654,-0.1654,-0.1655,-0.1655,-0.1655,-0.1655,-0.1375,-0.1375,-0.1437,-0.147,-0.1529,-0.1572,-0.1632,-0.165,-0.1683,-0.1675,-0.1683,-0.1563,-0.1657,-0.1657,-0.1657,-0.1656,-0.1656,-0.1656,-0.1656,-0.1331,-0.1333,-0.138,-0.1439,-0.1509,-0.158,-0.1626,-0.1678,-0.1702,-0.1719,-0.1609,-0.1699,-0.1688,-0.1728,-0.1729,-0.1729,-0.1729,-0.1729,-0.1729,-0.1252,-0.1297,-0.1325,-0.1407,-0.1446,-0.1521,-0.1628,-0.1649,-0.1699,-0.1617,-0.173,-0.1706,-0.1704,-0.1692,-0.1731,-0.173,-0.173,-0.173,-0.173,-0.1165,-0.1206,-0.1231,-0.1272,-0.136,-0.1402,-0.1543,-0.1564,-0.1575,-0.1535,-0.1558,-0.1566,-0.154,-0.1541,-0.1523,-0.1513,-0.151,-0.1508,0,-0.1096,-0.1121,-0.1143,-0.1174,-0.1206,-0.1317,-0.1309,-0.1374,-0.1417,-0.1368,-0.1555,-0.1579,-0.1584,-0.1553,-0.1551,-0.1528,0,0,0,-0.1035,-0.1056,-0.1043,-0.1096,-0.1121,-0.1177,-0.1297,-0.1274,-0.1417,-0.1391,-0.1456,-0.147,-0.1643,-0.1736,-0.1715,-0.1712,-0.1692,0,0]},{"header":{"parameterUnit":"m.s-1","parameterCategory":2,"la1":30.2992,"la2":30.254,"lo1":-89.0895,"lo2":-89.0443,"dy":0.0025,"dx":0.0025,"nx":19,"ny":19,"refTime":"2026-04-30T21:00:00:Z","depth":"4","parameterNumber":3,"parameterNumberName":"V-component_of_CURRENTS"},"data":[0,0,0,0.0006,0.0006,0.0022,0.0022,0.0081,0.0081,0,0,0,0,0,0,0,0,0,0,0,0.0003,0.0003,0.0006,0.0006,0.0022,0.0022,0.0081,0.0081,0,0,0,0,0,0,0,0,0,0,0,0.0003,0.0003,0.0003,0.0006,0.0022,0.0022,0.0081,0.0062,0,0,0,0,0,0,0,0,0,0,0.0043,0.0031,0.0003,0.0003,0.0006,0.0022,0.0022,0.0061,0.0063,0.0081,0,0.0075,0,0.0074,0.0085,0.0085,0,0,0,0.0019,0.0029,0.003,0.0003,0.0006,0.0022,0.0019,0.0062,0.0065,0.0084,0.0076,0.0077,0.0075,0.0085,0.0086,0.0105,0.0105,0,0,0.0018,0.0014,0.0028,0.0031,0.0001,0.0018,0.0019,0.0063,0.0065,0.0076,0.0079,0.0076,0.0086,0.0086,0.0105,0.0105,0,0,0,0.0007,0.0013,0.0012,0.0029,0.0026,0.0018,0.0019,0.0064,0.0062,0.0079,0.0076,0.0086,0.0087,0.0105,0.0105,0.0056,0,0,0,0.0007,0.0006,0.0011,0.001,0.0024,0.0039,0.0018,0.0059,0.0063,0.0076,0.0086,0.0087,0.0106,0.0105,0.0058,0.0031,0,0,0,0.0004,0.0006,0.0003,0.001,0.001,0.0038,0.004,0.006,0.0061,0.0085,0.0087,0.0106,0.0105,0.0059,0.0034,0.0038,0,0,0,0.0006,-0.0006,0.0003,-0.0012,0.001,0.0005,0.0039,0.0043,0.0058,0.0086,0.0106,0.0105,0.006,0.0036,0.0039,-0.0001,0,0,0,-0.0009,-0.0007,-0.0018,-0.001,-0.0033,0.0004,-0.0004,0.0029,0.006,0.0097,0.0097,0.0057,0.0034,0.0038,-0.0027,0,0,0,0,-0.0023,-0.0033,-0.0038,-0.005,-0.0046,-0.0044,-0.0008,0.0014,0.004,0.0064,0.0062,0.0049,0.0053,0.0034,0.0103,0.0103,0.0103,0.0103,0.0103,-0.0038,-0.0049,-0.0075,-0.0088,-0.0091,-0.0072,-0.0057,-0.002,0.0013,0.0015,0.0012,-0.0016,-0.0038,0.002,0.0019,0.0019,0.0019,0.0019,0.0019,-0.0071,-0.0088,-0.0109,-0.014,-0.0141,-0.0144,-0.0105,-0.008,-0.0046,-0.0023,-0.0016,-0.0013,0.0014,0.0015,0.0016,0.0016,0.0017,0.0017,0.0017,-0.0078,-0.009,-0.0119,-0.0172,-0.0203,-0.0197,-0.0212,-0.0164,-0.0098,-0.0095,-0.0092,-0.0041,-0.0039,-0.0087,-0.0087,-0.0087,-0.0088,-0.0088,-0.0088,-0.0069,-0.0101,-0.0152,-0.0207,-0.0254,-0.029,-0.0274,-0.0246,-0.0175,-0.0154,-0.0109,-0.0051,-0.0047,-0.0044,-0.009,-0.0089,-0.0089,-0.0089,-0.0089,-0.0071,-0.0091,-0.017,-0.0229,-0.0341,-0.0374,-0.0365,-0.0305,-0.0272,-0.0217,-0.0168,-0.0164,-0.0144,-0.0138,-0.0137,-0.0211,-0.0212,-0.0213,0,-0.0063,-0.0081,-0.0193,-0.0298,-0.0398,-0.0426,-0.0431,-0.0383,-0.0278,-0.0288,-0.0241,-0.0188,-0.0184,-0.0163,-0.0159,-0.0159,0,0,0,-0.0065,-0.0102,-0.0181,-0.0297,-0.0429,-0.0438,-0.0432,-0.0411,-0.0311,-0.0269,-0.023,-0.0225,-0.015,-0.0095,-0.0053,-0.0049,-0.0041,0,0]}]]